FENGYUN 1C DEB *, 47025

Orbit data source: Space-Track

FENGYUN 1C DEB *, 47025 is space debris in SSO originally from a launch on Mon, 10 May 1999 UTC launched from the Taiyaun Space Center, China (TSC). Fengyun 1C debris stems from the Chinese weather satellite Fengyun-1C, which was intentionally destroyed by a Chinese anti-satellite missile in 2007. This event dramatically increased the amount of space debris, with thousands of trackable fragments posing hazards to satellites and human spaceflight. The Fengyun 1C debris cloud has become a focal point in discussions about space sustainability and the need for international regulations to prevent the creation of new debris.

Loading next visibility...
Identifier
47025, 1999-025FBB
Orbit
SSO
Country
Flag of CNCN / PRC
Related business
Manufacturer
Unknown
Mission
Spacecraft
Bus & Motor
Unknown
Mass
Unknown
Launch date (UTC)
1999-05-10 (27 years ago)
Launch vehicle
Unknown
Launch site
Taiyaun Space Center, China (TSC)
Object type
Payload
Rocket body
Debris
Shape & HBR
Unknown shape, 0.1 m
Radar Cross Section
Small (<0.1 m²)

Expand to show TLE details & history
Last TLE update: 23 hours ago

TLE from 23 hours ago
0 FENGYUN 1C DEB *
1 47025U 99025FBB 26144.08520426  .00004147  00000-0  11067-2 0  9990
2 47025  99.0280   6.5480 0035828 232.9950 280.9081 14.48614632650904
Epoch: 2026-05-24T02:02Z
TLE epoch observation values (Epoch: 2026-05-24T02:02:41.648Z)
Latitude
26.18275°
Longitude
-81.36138°
Altitude
728.644 km
Speed
7.496 km/s
True Right ascension
12h 44m 01s
True Declination
26° 02' 47"
Sunlit
Object was in daylight at epoch
Visualization orbit readout
Latitude
Unknown
Longitude
Unknown
Altitude
Unknown
Speed
Unknown
Apparent Right ascension
Unknown
Apparent Declination
Unknown
Sunlit
N/A
Visualization observer readout
Local Sidereal Time
09:48:16
Azimuth
Unknown
Elevation
Unknown
Doppler factor
Unknown
Orbital elements
Apogee altitude
752.77 km
Perigee altitude
701.856 km
Semi-major axis
7,105.45 km
Eccentricity
0.00358
Inclination
99.028°
RAAN
6.548°
Arg. of periapsis
232.995°
True anomaly
280.50462°
Mean anomaly
280.9081°
Eccentric anomaly
280.70639°
Mean motion
3.62373 °/min
Orbital period
99.35 mins
BSTAR
0.0011067
Loading maneuver chart data...
Computing Atmospheric mass density...

Documentation

Showing up to 5 results
|